Location: Austin
(30.3000°N, 97.7500°W)
Time: 14:41:56
(UTC-06:00)

Cosmos 371 Rocket - Pass Details

Date: 10 January 2026
Orbit: 675 x 689 km, 74.0° (Epoch: 20 January)

Event Time Altitude Azimuth Distance (km) Brightness Sun altitude
Rises 19:12:12 0° 337° (NNW) 3,035 6.7 -17.7°
Reaches altitude 10° 19:14:33 10° 332° (NNW) 2,115 5.9 -18.2°
Maximum altitude 19:19:09 51° 257° (WSW) 850 4.1 -19.2°
Drops below altitude 10° 19:23:43 10° 182° (S) 2,099 6.0 -20.1°
Sets 19:26:03 0° 177° (S) 3,009 6.7 -20.6°
